TimePST,TemperatureF,Dew PointF,Humidity,Sea Level PressureIn,VisibilityMPH,Wind Direction,Wind SpeedMPH,Gust SpeedMPH,PrecipitationIn,Events,Conditions,WindDirDegrees,DateUTC
12:53 AM,39.0,37.0,93,30.27,9.0,Calm,Calm,-,N/A,,Clear,0,2011-11-08 08:53:00
1:53 AM,41.0,37.4,87,30.28,10.0,ESE,3.5,-,N/A,,Clear,120,2011-11-08 09:53:00
2:53 AM,37.0,35.1,93,30.29,10.0,Calm,Calm,-,N/A,,Clear,0,2011-11-08 10:53:00
3:53 AM,37.0,35.1,93,30.29,6.0,Calm,Calm,-,N/A,,Clear,0,2011-11-08 11:53:00
4:53 AM,37.0,35.1,93,30.30,5.0,Calm,Calm,-,N/A,,Clear,0,2011-11-08 12:53:00
5:53 AM,36.0,34.0,93,30.32,10.0,Calm,Calm,-,N/A,,Clear,0,2011-11-08 13:53:00
6:53 AM,37.0,35.1,93,30.33,10.0,Calm,Calm,-,N/A,,Clear,0,2011-11-08 14:53:00
7:53 AM,41.0,39.0,93,30.34,10.0,Calm,Calm,-,N/A,,Clear,0,2011-11-08 15:53:00
8:53 AM,48.0,42.1,80,30.35,10.0,Calm,Calm,-,N/A,,Clear,0,2011-11-08 16:53:00
9:53 AM,52.0,41.0,66,30.35,10.0,Calm,Calm,-,N/A,,Clear,0,2011-11-08 17:53:00
10:53 AM,54.0,42.1,64,30.35,10.0,West,4.6,-,N/A,,Clear,280,2011-11-08 18:53:00
11:53 AM,57.2,42.8,59,30.32,10.0,North,6.9,-,N/A,,Clear,360,2011-11-08 19:53:00
12:53 PM,59.0,41.0,51,30.30,10.0,Variable,5.8,-,N/A,,Clear,0,2011-11-08 20:53:00
1:53 PM,60.1,41.0,49,30.30,10.0,NNW,4.6,-,N/A,,Clear,340,2011-11-08 21:53:00
2:53 PM,61.0,41.0,48,30.28,10.0,North,6.9,-,N/A,,Clear,10,2011-11-08 22:53:00
3:53 PM,60.1,39.9,47,30.28,10.0,North,5.8,-,N/A,,Clear,10,2011-11-08 23:53:00
4:53 PM,55.9,39.9,55,30.28,10.0,NNW,5.8,-,N/A,,Clear,330,2011-11-09 00:53:00
5:53 PM,50.0,41.0,71,30.29,10.0,Calm,Calm,-,N/A,,Clear,0,2011-11-09 01:53:00
6:53 PM,46.9,41.0,80,30.29,10.0,Calm,Calm,-,N/A,,Clear,0,2011-11-09 02:53:00
7:53 PM,45.0,41.0,86,30.30,10.0,Calm,Calm,-,N/A,,Clear,0,2011-11-09 03:53:00
8:53 PM,42.8,39.2,87,30.30,8.0,Calm,Calm,-,N/A,,Clear,0,2011-11-09 04:53:00
9:53 PM,42.1,39.9,92,30.30,7.0,Calm,Calm,-,N/A,,Clear,0,2011-11-09 05:53:00
10:53 PM,43.0,41.0,93,30.31,7.0,Calm,Calm,-,N/A,,Clear,0,2011-11-09 06:53:00
11:53 PM,41.0,39.0,93,30.31,5.0,Calm,Calm,-,N/A,,Clear,0,2011-11-09 07:53:00